GW2517 Weather Reports


time (UTC)temp
C
wind
direction
speed
KPH
gust
KPH
rain 1hr
cm
rain 24hr
cm
rain mn
cm
humidity
%
barometer
mb
20260906180028 25 166 6.4 12.9 0.00 0.00 0.00 64 1018.3
20260906175046 25 161 6.4 16.1 0.00 0.00 0.00 68 1018.3
20260906174023 26 162 4.8 12.9 0.00 0.00 0.00 69 1018.3
20260906173020 25 176 6.4 11.3 0.00 0.00 0.00 71 1018.5
20260906172017 25 169 8.0 16.1 0.00 0.00 0.00 72 1018.6
20260906171035 25 168 6.4 12.9 0.00 0.00 0.00 72 1018.7
20260906170032 24 178 8.0 14.5 0.00 0.00 0.00 74 1018.7
20260906165029 24 174 8.0 16.1 0.00 0.00 0.00 75 1019.0
20260906164026 25 182 8.0 14.5 0.00 0.00 0.00 75 1019.2
20260906163043 24 169 6.4 11.3 0.00 0.00 0.00 75 1019.3
20260906162040 23 168 6.4 14.5 0.00 0.00 0.00 77 1019.1
20260906161017 23 174 6.4 12.9 0.00 0.00 0.00 76 1019.1
20260906160035 23 175 8.0 17.7 0.00 0.00 0.00 76 1019.2
20260906155033 23 170 8.0 14.5 0.00 0.00 0.00 78 1019.1
20260906154029 23 173 6.4 14.5 0.00 0.00 0.00 79 1019.1
20260906153046 23 182 6.4 14.5 0.00 0.00 0.00 79 1018.9
20260906152024 23 170 6.4 12.9 0.00 0.00 0.00 80 1018.8
20260906151021 22 174 6.4 12.9 0.00 0.00 0.00 83 1019.2
20260906150018 22 167 4.8 11.3 0.00 0.00 0.00 84 1019.2
20260906145035 21 168 6.4 11.3 0.00 0.00 0.00 87 1019.0
20260906144033 21 156 4.8 9.7 0.00 0.00 0.00 89 1018.9
20260906143029 21 177 6.4 9.7 0.00 0.00 0.00 91 1018.9
20260906142046 20 168 6.4 11.3 0.00 0.00 0.00 96 1018.7
20260906141024 19 164 4.8 9.7 0.00 0.00 0.00 99 1018.7
20260906140021 18 177 6.4 9.7 0.00 0.00 0.00 99 1018.8
20260906135018 18 171 3.2 6.4 0.00 0.00 0.00 99 1019.0
20260906134016 18 160 3.2 6.4 0.00 0.00 0.00 99 1018.9
20260906133033 17 239 1.6 3.2 0.00 0.00 0.00 99 1018.9
20260906132030 17 294 1.6 4.8 0.00 0.00 0.00 99 1018.9
20260906131027 17 291 1.6 3.2 0.00 0.00 0.00 99 1018.9
20260906130024 16 307 3.2 6.4 0.00 0.00 0.00 99 1018.7
20260906125041 16 274 3.2 4.8 0.00 0.00 0.00 99 1018.5
20260906124018 15 310 4.8 8.0 0.00 0.00 0.00 99 1018.6
20260906123015 16 311 4.8 8.0 0.00 0.00 0.00 99 1018.4
20260906122033 15 291 3.2 4.8 0.00 0.00 0.00 99 1018.4
20260906121030 15 298 3.2 6.4 0.00 0.00 0.00 99 1018.4
20260906120047 15 279 3.2 6.4 0.00 0.00 0.00 99 1018.4
20260906115024 15 288 3.2 6.4 0.00 0.00 0.00 99 1018.3
20260906114021 15 297 4.8 6.4 0.00 0.00 0.00 99 1018.2
20260906113018 15 305 4.8 6.4 0.00 0.00 0.00 99 1018.0
20260906112035 15 300 3.2 6.4 0.00 0.00 0.00 99 1017.8
20260906111033 15 276 3.2 4.8 0.00 0.00 0.00 99 1017.7
20260906110029 15 280 3.2 4.8 0.00 0.00 0.00 99 1017.9
20260906105026 15 287 3.2 6.4 0.00 0.00 0.00 99 1018.0
20260906104024 15 294 3.2 6.4 0.00 0.00 0.00 99 1017.8
20260906103041 15 305 4.8 8.0 0.00 0.00 0.00 99 1017.8
20260906102018 15 275 1.6 4.8 0.00 0.00 0.00 99 1017.7
20260906101015 15 288 1.6 4.8 0.00 0.00 0.00 99 1017.5
20260906100033 15 297 3.2 6.4 0.00 0.00 0.00 99 1017.7
20260906095030 16 306 4.8 8.0 0.00 0.00 0.00 99 1017.6
20260906094027 15 314 6.4 9.7 0.00 0.00 0.00 99 1017.5
20260906093024 15 304 4.8 8.0 0.00 0.00 0.00 99 1017.3
20260906092021 15 304 4.8 8.0 0.00 0.00 0.00 99 1017.1
20260906091018 15 306 3.2 6.4 0.00 0.00 0.00 99 1017.0
20260906090016 16 290 3.2 6.4 0.00 0.00 0.00 99 1016.9
20260906085032 16 301 3.2 6.4 0.00 0.00 0.00 99 1017.1
20260906084030 16 290 3.2 6.4 0.00 0.00 0.00 99 1017.2
20260906083027 16 307 3.2 6.4 0.00 0.00 0.00 99 1017.4
20260906082023 16 313 4.8 8.0 0.00 0.00 0.00 99 1017.3
20260906081021 16 307 4.8 6.4 0.00 0.00 0.00 99 1017.4
20260906080018 16 321 6.4 8.0 0.00 0.00 0.00 99 1017.4
20260906075035 16 313 6.4 8.0 0.00 0.00 0.00 99 1017.3
20260906074033 15 313 6.4 9.7 0.00 0.00 0.00 99 1017.1
20260906073029 16 293 3.2 4.8 0.00 0.00 0.00 99 1017.2
20260906072027 16 315 4.8 9.7 0.00 0.00 0.00 99 1017.2
20260906071024 16 304 4.8 6.4 0.00 0.00 0.00 99 1017.2
20260906070020 16 307 4.8 9.7 0.00 0.00 0.00 99 1017.5
20260906065018 16 310 4.8 8.0 0.00 0.00 0.00 99 1017.5
20260906064035 17 300 3.2 6.4 0.00 0.00 0.00 99 1017.5
20260906063033 17 281 3.2 6.4 0.00 0.00 0.00 99 1017.5
20260906062029 17 310 3.2 4.8 0.00 0.00 0.00 99 1017.8
20260906061046 17 323 4.8 9.7 0.00 0.00 0.00 99 1017.7
20260906060024 17 312 4.8 6.4 0.00 0.00 0.00 99 1017.7
20260906055020 17 303 3.2 6.4 0.00 0.00 0.00 99 1017.7
20260906054017 17 315 3.2 6.4 0.00 0.00 0.00 99 1017.7
20260906053054 17 312 3.2 6.4 0.00 0.00 0.00 99 1017.6
20260906052032 17 308 3.2 6.4 0.00 0.00 0.00 99 1017.4
20260906051029 17 283 3.2 4.8 0.00 0.00 0.00 99 1017.4
20260906050026 17 255 3.2 4.8 0.00 0.00 0.00 99 1017.4
20260906045104 18 276 3.2 4.8 0.00 0.00 0.00 99 1017.6
20260906044040 17 318 4.8 6.4 0.00 0.00 0.00 99 1017.7
20260906043017 17 323 4.8 6.4 0.00 0.00 0.00 99 1017.6
20260906042034 17 313 3.2 6.4 0.00 0.00 0.00 99 1017.5
20260906041032 17 294 3.2 6.4 0.00 0.00 0.00 99 1017.2
20260906040028 17 290 3.2 4.8 0.00 0.00 0.00 99 1017.3
20260906035026 17 321 4.8 6.4 0.00 0.00 0.00 99 1017.3
20260906034023 17 311 4.8 8.0 0.00 0.00 0.00 99 1017.5
20260906033041 17 306 3.2 6.4 0.00 0.00 0.00 99 1017.3
20260906032017 17 325 6.4 9.7 0.00 0.00 0.00 99 1017.3
20260906031033 17 315 3.2 6.4 0.00 0.00 0.00 99 1017.2
20260906030031 17 312 4.8 9.7 0.00 0.00 0.00 99 1016.8
20260906025028 17 302 4.8 6.4 0.00 0.00 0.00 99 1016.8
20260906024025 17 313 4.8 8.0 0.00 0.00 0.00 99 1016.7
20260906023042 18 293 3.2 6.4 0.00 0.00 0.00 99 1016.5
20260906022039 18 318 4.8 8.0 0.00 0.00 0.00 99 1016.5
20260906021017 18 313 4.8 6.4 0.00 0.00 0.00 98 1016.2
20260906020034 18 310 3.2 6.4 0.00 0.00 0.00 97 1015.9
20260906015031 19 327 3.2 6.4 0.00 0.00 0.00 96 1015.7
20260906014048 20 326 3.2 4.8 0.00 0.00 0.00 96 1015.4
20260906013025 20 329 3.2 4.8 0.00 0.00 0.00 94 1015.1
20260906012042 20 330 1.6 3.2 0.00 0.00 0.00 92 1014.9
20260906011019 21 322 1.6 3.2 0.00 0.00 0.00 92 1014.6
20260906010016 21 13 1.6 3.2 0.00 0.00 0.00 91 1014.7
20260906005034 21 346 1.6 4.8 0.00 0.00 0.00 90 1015.0
20260906004031 22 20 1.6 4.8 0.00 0.00 0.00 87 1015.0
20260906003028 23 64 1.6 3.2 0.00 0.00 0.00 85 1015.3
20260906002045 23 341 1.6 6.4 0.00 0.00 0.00 83 1015.1
20260906001022 24 331 0.0 3.2 0.00 0.00 0.00 81 1015.2
20260906000020 24 284 1.6 4.8 0.00 0.00 0.00 80 1015.0
20260905235036 25 293 3.2 6.4 0.00 0.00 0.00 77 1015.0
20260905234033 26 321 1.6 4.8 0.00 0.00 0.00 75 1015.0
20260905233030 26 327 1.6 4.8 0.00 0.00 0.00 72 1015.0
20260905232028 27 346 3.2 4.8 0.00 0.00 0.00 70 1015.1
20260905231025 28 253 1.6 4.8 0.00 0.00 0.00 68 1015.2
20260905230022 27 309 1.6 3.2 0.00 0.00 0.00 70 1015.3
20260905225039 28 240 3.2 8.0 0.00 0.00 0.00 67 1015.1
20260905224016 28 317 1.6 8.0 0.00 0.00 0.00 67 1015.1
20260905223034 28 209 1.6 3.2 0.00 0.00 0.00 67 1015.5
20260905222031 27 292 3.2 8.0 0.00 0.00 0.00 70 1015.3
20260905221047 28 193 1.6 6.4 0.00 0.00 0.00 66 1015.3
20260905220025 27 27 3.2 8.0 0.00 0.00 0.00 69 1015.4
20260905215022 27 188 3.2 6.4 0.00 0.00 0.00 68 1015.6
20260905214019 27 7 1.6 6.4 0.00 0.00 0.00 68 1015.7
20260905213017 27 309 3.2 6.4 0.00 0.00 0.00 69 1015.7
20260905212034 26 287 3.2 6.4 0.00 0.00 0.00 70 1015.9
20260905211030 26 322 6.4 11.3 0.00 0.00 0.00 74 1015.8
20260905210028 26 334 4.8 12.9 0.00 0.00 0.00 70 1016.0
20260905205025 26 270 3.2 6.4 0.00 0.00 0.00 70 1016.1
20260905204022 26 284 3.2 4.8 0.00 0.00 0.00 71 1016.2
20260905203019 26 309 3.2 9.7 0.00 0.00 0.00 70 1016.3
20260905202016 26 177 3.2 6.4 0.00 0.00 0.00 73 1016.6
20260905201055 25 207 3.2 8.0 0.00 0.00 0.00 73 1016.6
20260905200031 25 228 3.2 4.8 0.00 0.00 0.00 77 1016.6
20260905195028 25 254 3.2 6.4 0.00 0.00 0.00 75 1016.6
20260905194025 25 304 3.2 6.4 0.00 0.00 0.00 73 1016.6
20260905193023 25 155 1.6 3.2 0.00 0.00 0.00 74 1016.5
20260905192040 25 200 1.6 4.8 0.00 0.00 0.00 73 1016.5
20260905191017 24 255 1.6 3.2 0.00 0.00 0.00 75 1016.7
20260905190054 23 195 1.6 6.4 0.00 0.00 0.00 80 1016.5
20260905185031 23 210 1.6 6.4 0.00 0.00 0.00 79 1016.4
20260905184028 24 172 3.2 6.4 0.00 0.00 0.00 80 1016.4
20260905183046 23 230 3.2 8.0 0.00 0.00 0.00 81 1016.4
20260905182023 23 289 1.6 4.8 0.00 0.00 0.00 80 1016.6
20260905181020 23 199 1.6 4.8 0.00 0.00 0.00 81 1016.7